EW6379 Weather Reports


Display with metric or nautical units.
time (UTC)temp
F
wind
direction
speed
MPH
gust
MPH
rain 1hr
in
rain 24hr
in
rain mn
in
humidity
%
barometer
mb
20260508021503 75 4.0 7.0 0.00 0.00 0.00 31 1007.4
20260508020105 77 4.0 7.0 0.00 0.00 0.00 29 1007.4
20260508014600 78 4.0 9.0 0.00 0.00 0.00 28 1007.4
20260508013059 79 4.0 8.0 0.00 0.00 0.00 27 1007.5
20260508011557 80 5.0 9.0 0.00 0.00 0.00 27 1007.6
20260508010054 82 0.0 3.0 0.00 0.00 0.00 26 1007.7
20260508004549 82 0.0 5.0 0.00 0.00 0.00 26 1007.9
20260508003046 81 1.0 4.0 0.00 0.00 0.00 26 1008.0
20260508001542 81 1.0 7.0 0.00 0.00 0.00 26 1008.1
20260508000042 80 1.0 9.0 0.00 0.00 0.00 25 1008.2
20260507234539 80 2.0 9.0 0.00 0.00 0.00 25 1008.3
20260507233043 79 3.0 9.0 0.00 0.00 0.00 25 1008.4
20260507231538 79 5.0 11.0 0.00 0.00 0.00 25 1008.5
20260507230041 79 2.0 9.0 0.00 0.00 0.00 26 1008.6
20260507224540 80 4.0 7.0 0.00 0.00 0.00 25 1008.9
20260507223034 80 3.0 7.0 0.00 0.00 0.00 26 1008.9
20260507221537 78 1.0 12.0 0.00 0.00 0.00 25 1009.1
20260507220030 80 1.0 9.0 0.00 0.00 0.00 25 1009.3
20260507214528 81 2.0 8.0 0.00 0.00 0.00 25 1009.5
20260507213025 79 1.0 7.0 0.00 0.00 0.00 25 1009.7
20260507211525 77 3.0 8.0 0.00 0.00 0.00 27 1009.8
20260507210022 76 4.0 12.0 0.00 0.00 0.00 26 1009.9
20260507204521 76 3.0 11.0 0.00 0.00 0.00 25 1010.1
20260507203028 77 0.0 6.0 0.00 0.00 0.00 25 1010.3
20260507201521 76 0.0 9.0 0.00 0.00 0.00 24 1010.4
20260507200017 76 4.0 8.0 0.00 0.00 0.00 24 1010.5
20260507194518 74 8.0 15.0 0.00 0.00 0.00 23 1010.6
20260507193013 74 4.0 12.0 0.00 0.00 0.00 24 1010.8
20260507191510 73 5.0 11.0 0.00 0.00 0.00 26 1010.8
20260507190008 73 8.0 13.0 0.00 0.00 0.00 27 1010.9
20260507184508 72 6.0 15.0 0.00 0.00 0.00 28 1011.0
20260507183010 71 11.0 16.0 0.00 0.00 0.00 29 1011.1
20260507181501 70 12.0 18.0 0.00 0.00 0.00 31 1011.2
20260507180059 69 6.0 15.0 0.00 0.00 0.00 34 1011.2
20260507174559 69 7.0 15.0 0.00 0.00 0.00 34 1011.4
20260507173102 68 9.0 13.0 0.00 0.00 0.00 33 1011.5
20260507171554 68 7.0 12.0 0.00 0.00 0.00 36 1011.4
20260507170100 67 4.0 10.0 0.00 0.00 0.00 38 1011.6
20260507164558 66 7.0 10.0 0.00 0.00 0.00 38 1011.7
20260507163047 65 6.0 10.0 0.00 0.00 0.00 39 1011.7
20260507161545 65 6.0 10.0 0.00 0.00 0.00 40 1011.8
20260507160045 64 7.0 10.0 0.00 0.00 0.00 41 1011.8
20260507154551 63 6.0 10.0 0.00 0.00 0.00 42 1012.0
20260507153044 63 8.0 11.0 0.00 0.00 0.00 42 1012.1
20260507151543 63 8.0 11.0 0.00 0.00 0.00 42 1012.2
20260507150043 63 5.0 10.0 0.00 0.00 0.00 44 1012.1
20260507144543 61 6.0 11.0 0.00 0.00 0.00 45 1012.2
20260507143040 61 7.0 10.0 0.00 0.00 0.00 45 1012.1
20260507141542 60 6.0 8.0 0.00 0.00 0.00 47 1011.9
20260507140036 59 2.0 5.0 0.00 0.00 0.00 48 1011.6
20260507134537 59 3.0 7.0 0.00 0.00 0.00 47 1011.4
20260507133037 60 3.0 7.0 0.00 0.00 0.00 47 1011.2
20260507131539 59 2.0 6.0 0.00 0.00 0.00 47 1011.0
20260507130029 58 5.0 9.0 0.00 0.00 0.00 48 1010.8
20260507124531 59 5.0 10.0 0.00 0.00 0.00 46 1010.9
20260507123023 58 8.0 11.0 0.00 0.00 0.00 46 1010.8
20260507121521 59 3.0 10.0 0.00 0.00 0.00 45 1010.8
20260507120023 59 5.0 10.0 0.00 0.00 0.00 44 1010.7
20260507114516 59 3.0 9.0 0.00 0.00 0.00 44 1010.6
20260507113016 59 3.0 9.0 0.00 0.00 0.00 44 1010.5
20260507111513 60 2.0 10.0 0.00 0.00 0.00 44 1010.4
20260507110010 60 4.0 11.0 0.00 0.00 0.00 42 1010.3
20260507104509 60 3.0 13.0 0.00 0.00 0.00 42 1010.1
20260507103012 60 7.0 19.0 0.00 0.00 0.00 43 1010.1
20260507101512 61 10.0 14.0 0.00 0.00 0.00 42 1009.9
20260507100002 61 7.0 16.0 0.00 0.00 0.00 41 1009.7
20260507094606 62 8.0 14.0 0.00 0.00 0.00 41 1009.7
20260507093058 62 7.0 14.0 0.00 0.00 0.00 41 1009.5
20260507091557 62 8.0 12.0 0.00 0.00 0.00 40 1009.4
20260507090100 62 9.0 15.0 0.00 0.00 0.00 40 1009.4
20260507084559 62 4.0 13.0 0.00 0.00 0.00 40 1009.4
20260507083052 62 3.0 11.0 0.00 0.00 0.00 40 1009.2
20260507081551 63 7.0 13.0 0.00 0.00 0.00 40 1009.2
20260507080057 63 6.0 11.0 0.00 0.00 0.00 39 1008.9
20260507074542 64 8.0 16.0 0.00 0.00 0.00 38 1008.5
20260507073039 64 8.0 26.0 0.00 0.00 0.00 37 1008.3
20260507071536 64 15.0 29.0 0.00 0.00 0.00 37 1008.1
20260507070034 65 17.0 35.0 0.00 0.00 0.00 37 1007.9
20260507064533 65 23.0 33.0 0.00 0.00 0.00 37 1007.8
20260507063032 65 23.0 34.0 0.00 0.00 0.00 37 1008.0
20260507061532 65 22.0 35.0 0.00 0.00 0.00 37 1008.0
20260507060031 65 18.0 27.0 0.00 0.00 0.00 38 1008.1
20260507054537 66 13.0 28.0 0.00 0.00 0.00 37 1008.3
20260507053032 66 14.0 29.0 0.00 0.00 0.00 36 1008.1
20260507051532 67 15.0 30.0 0.00 0.00 0.00 35 1008.2
20260507050032 68 15.0 22.0 0.00 0.00 0.00 34 1008.4
20260507044529 68 16.0 25.0 0.00 0.00 0.00 33 1008.5
20260507043028 68 6.0 8.0 0.00 0.00 0.00 32 1008.3
20260507041527 70 1.0 3.0 0.00 0.00 0.00 30 1007.8
20260507040026 70 5.0 13.0 0.00 0.00 0.00 29 1007.8
20260507034527 71 4.0 10.0 0.00 0.00 0.00 29 1007.6
20260507033029 72 5.0 14.0 0.00 0.00 0.00 28 1007.6
20260507031525 72 11.0 21.0 0.00 0.00 0.00 27 1007.1
20260507030024 73 8.0 27.0 0.00 0.00 0.00 27 1007.0
20260507024523 74 14.0 23.0 0.00 0.00 0.00 26 1006.8
20260507023023 74 11.0 20.0 0.00 0.00 0.00 25 1006.9